GW0701 Weather Reports


Display with metric or nautical units.
time (UTC)temp
F
wind
direction
speed
MPH
gust
MPH
rain 1hr
in
rain 24hr
in
rain mn
in
humidity
%
barometer
mb
20260507132251 53 238 3.0 6.0 0.00 0.00 0.00 58 1014.7
20260507131748 52 227 5.0 6.0 0.00 0.00 0.00 59 1014.7
20260507131245 52 202 4.0 5.0 0.00 0.00 0.00 59 1014.9
20260507130741 51 194 4.0 6.0 0.00 0.00 0.00 59 1014.8
20260507130239 51 218 4.0 5.0 0.00 0.00 0.00 61 1014.8
20260507125738 51 219 2.0 2.0 0.00 0.00 0.00 62 1014.7
20260507125235 50 217 3.0 5.0 0.00 0.00 0.00 63 1014.9
20260507124731 49 217 3.0 5.0 0.00 0.00 0.00 65 1014.8
20260507124228 49 231 4.0 5.0 0.00 0.00 0.00 65 1014.9
20260507123727 48 208 4.0 5.0 0.00 0.00 0.00 66 1014.8
20260507123224 48 227 4.0 5.0 0.00 0.00 0.00 66 1014.8
20260507122719 48 243 2.0 2.0 0.00 0.00 0.00 68 1014.8
20260507122215 47 235 2.0 2.0 0.00 0.00 0.00 68 1014.6
20260507121711 46 233 2.0 2.0 0.00 0.00 0.00 69 1014.8
20260507121207 46 245 2.0 2.0 0.00 0.00 0.00 70 1014.7
20260507120703 46 205 1.0 2.0 0.00 0.00 0.00 70 1014.7
20260507120201 45 193 4.0 5.0 0.00 0.00 0.00 71 1014.7
20260507115656 45 187 2.0 3.0 0.00 0.00 0.00 72 1014.8
20260507115152 44 217 3.0 3.0 0.00 0.00 0.00 74 1014.8
20260507114648 44 212 2.0 2.0 0.00 0.00 0.00 75 1014.9
20260507114146 43 230 2.0 3.0 0.00 0.00 0.00 76 1014.9
20260507113643 42 222 2.0 2.0 0.00 0.00 0.00 77 1014.9
20260507113140 42 226 2.0 2.0 0.00 0.00 0.00 78 1014.8
20260507112638 42 218 2.0 2.0 0.00 0.00 0.00 77 1015.1
20260507112134 42 223 2.0 2.0 0.00 0.00 0.00 78 1015.1
20260507111631 41 225 1.0 2.0 0.00 0.00 0.00 79 1015.2
20260507111128 41 227 1.0 1.0 0.00 0.00 0.00 79 1015.2
20260507110624 40 227 1.0 1.0 0.00 0.00 0.00 80 1015.2
20260507110121 40 224 0.0 0.0 0.00 0.00 0.00 80 1015.2
20260507105618 40 224 1.0 1.0 0.00 0.00 0.00 80 1015.0
20260507105114 40 224 0.0 1.0 0.00 0.00 0.00 80 1015.0
20260507104612 40 224 0.0 1.0 0.00 0.00 0.00 80 1015.0
20260507104108 40 224 0.0 1.0 0.00 0.00 0.00 79 1015.0
20260507103604 40 224 1.0 1.0 0.00 0.00 0.00 79 1014.9
20260507103101 40 224 1.0 1.0 0.00 0.00 0.00 79 1015.1
20260507102557 40 225 0.0 1.0 0.00 0.00 0.00 80 1014.9
20260507102053 40 219 0.0 0.0 0.00 0.00 0.00 80 1015.0
20260507101548 40 219 0.0 1.0 0.00 0.00 0.00 80 1015.0
20260507101045 40 219 0.0 1.0 0.00 0.00 0.00 79 1015.0
20260507100543 40 219 1.0 1.0 0.00 0.00 0.00 80 1014.9
20260507100041 40 219 1.0 1.0 0.00 0.00 0.00 80 1015.2
20260507095538 40 219 1.0 1.0 0.00 0.00 0.00 81 1015.2
20260507095035 40 219 0.0 1.0 0.00 0.00 0.00 82 1015.1
20260507094531 40 218 0.0 0.0 0.00 0.00 0.00 82 1015.2
20260507094028 40 218 0.0 0.0 0.00 0.00 0.00 82 1015.1
20260507093526 40 218 0.0 0.0 0.00 0.00 0.00 82 1015.3
20260507093024 40 218 0.0 0.0 0.00 0.00 0.00 82 1015.2
20260507092520 40 218 0.0 0.0 0.00 0.00 0.00 82 1015.1
20260507092017 40 218 0.0 1.0 0.00 0.00 0.00 82 1015.2
20260507091514 40 218 1.0 1.0 0.00 0.00 0.00 83 1015.2
20260507091010 40 218 0.0 0.0 0.00 0.00 0.00 84 1015.3
20260507090506 40 220 0.0 0.0 0.00 0.00 0.00 84 1015.3
20260507090003 40 220 0.0 0.0 0.00 0.00 0.00 84 1015.3
20260507085500 40 220 0.0 0.0 0.00 0.00 0.00 83 1015.2
20260507084956 40 220 0.0 0.0 0.00 0.00 0.00 82 1015.4
20260507084453 40 220 0.0 0.0 0.00 0.00 0.00 82 1015.4
20260507083950 40 220 0.0 0.0 0.00 0.00 0.00 82 1015.6
20260507083446 40 220 0.0 0.0 0.00 0.00 0.00 81 1015.5
20260507082943 41 220 0.0 0.0 0.00 0.00 0.00 81 1015.4
20260507082439 41 220 0.0 0.0 0.00 0.00 0.00 81 1015.4
20260507081936 41 220 1.0 1.0 0.00 0.00 0.00 80 1015.6
20260507081432 41 220 0.0 0.0 0.00 0.00 0.00 80 1015.5
20260507080929 41 220 1.0 1.0 0.00 0.00 0.00 79 1015.8
20260507080425 42 220 1.0 1.0 0.00 0.00 0.00 78 1015.8
20260507075920 42 219 1.0 1.0 0.00 0.00 0.00 77 1015.9
20260507075417 42 219 0.0 0.0 0.00 0.00 0.00 77 1015.8
20260507074914 42 219 0.0 0.0 0.00 0.00 0.00 76 1015.8
20260507074410 42 219 0.0 0.0 0.00 0.00 0.00 76 1015.9
20260507073908 43 219 0.0 1.0 0.00 0.00 0.00 75 1015.7
20260507073404 42 218 1.0 1.0 0.00 0.00 0.00 75 1015.8
20260507072902 42 218 1.0 1.0 0.00 0.00 0.00 75 1015.9
20260507072359 42 218 1.0 1.0 0.00 0.00 0.00 75 1015.9
20260507071856 43 217 1.0 1.0 0.00 0.00 0.00 75 1016.1
20260507071353 43 217 1.0 1.0 0.00 0.00 0.00 75 1016.0
20260507070849 43 217 1.0 1.0 0.00 0.00 0.00 75 1016.0
20260507070347 43 219 1.0 2.0 0.00 0.00 0.00 74 1016.0
20260507065844 43 218 1.0 1.0 0.00 0.00 0.00 76 1016.1
20260507065340 43 219 1.0 1.0 0.00 0.00 0.00 74 1016.0
20260507064837 43 222 2.0 2.0 0.00 0.00 0.00 75 1016.2
20260507064336 43 226 1.0 1.0 0.00 0.00 0.00 74 1016.0
20260507063833 43 227 0.0 1.0 0.00 0.00 0.00 74 1016.0
20260507063330 43 228 1.0 1.0 0.00 0.00 0.00 75 1016.1
20260507062826 43 228 0.0 1.0 0.00 0.00 0.00 74 1016.2
20260507062324 43 223 1.0 2.0 0.00 0.00 0.00 75 1016.3
20260507061822 43 222 1.0 1.0 0.00 0.00 0.00 79 1016.2
20260507061319 42 222 0.0 0.0 0.00 0.00 0.00 77 1016.5
20260507060818 42 222 1.0 1.0 0.00 0.00 0.00 79 1016.6
20260507060314 42 228 1.0 1.0 0.00 0.00 0.00 75 1016.7
20260507055811 43 228 0.0 0.0 0.00 0.00 0.00 75 1016.5
20260507055306 43 228 0.0 0.0 0.00 0.00 0.00 75 1016.6
20260507054803 42 228 1.0 1.0 0.00 0.00 0.00 74 1016.5
20260507054259 43 228 0.0 1.0 0.00 0.00 0.00 74 1016.6
20260507053756 42 228 0.0 0.0 0.00 0.00 0.00 75 1016.5
20260507053254 42 228 0.0 1.0 0.00 0.00 0.00 79 1016.6
20260507052753 43 228 1.0 1.0 0.00 0.00 0.00 78 1016.6
20260507052249 43 230 1.0 1.0 0.00 0.00 0.00 76 1016.7
20260507051747 44 244 0.0 1.0 0.00 0.00 0.00 71 1016.5
20260507051244 44 244 1.0 1.0 0.00 0.00 0.00 68 1016.6
20260507050740 44 244 1.0 1.0 0.00 0.00 0.00 67 1016.6
20260507050237 44 245 1.0 1.0 0.00 0.00 0.00 66 1016.5
20260507045734 44 244 0.0 0.0 0.00 0.00 0.00 65 1016.6
20260507045230 44 246 2.0 2.0 0.00 0.00 0.00 67 1016.8
20260507044728 44 244 0.0 0.0 0.00 0.00 0.00 69 1016.6
20260507044224 43 240 0.0 0.0 0.00 0.00 0.00 70 1016.6
20260507043720 43 233 0.0 0.0 0.00 0.00 0.00 74 1016.6
20260507043217 44 233 0.0 0.0 0.00 0.00 0.00 71 1016.8
20260507042713 44 233 0.0 0.0 0.00 0.00 0.00 72 1016.6
20260507042208 44 233 0.0 0.0 0.00 0.00 0.00 71 1016.6
20260507041706 44 239 0.0 0.0 0.00 0.00 0.00 68 1016.6
20260507041202 44 241 0.0 0.0 0.00 0.00 0.00 66 1016.7
20260507040700 44 241 0.0 0.0 0.00 0.00 0.00 66 1016.8
20260507040155 44 241 0.0 0.0 0.00 0.00 0.00 69 1016.8
20260507035652 43 241 0.0 0.0 0.00 0.00 0.00 70 1016.7
20260507035148 42 241 0.0 0.0 0.00 0.00 0.00 75 1016.9
20260507034645 43 241 0.0 0.0 0.00 0.00 0.00 76 1016.9
20260507034142 42 241 0.0 0.0 0.00 0.00 0.00 80 1016.8
20260507033641 42 241 0.0 0.0 0.00 0.00 0.00 80 1016.8
20260507033137 43 241 0.0 0.0 0.00 0.00 0.00 79 1016.9
20260507032635 43 238 0.0 0.0 0.00 0.00 0.00 75 1016.7
20260507032130 43 228 0.0 0.0 0.00 0.00 0.00 74 1016.7
20260507031628 43 228 0.0 0.0 0.00 0.00 0.00 76 1016.7
20260507031124 43 228 0.0 0.0 0.00 0.00 0.00 78 1016.7
20260507030621 44 228 0.0 0.0 0.00 0.00 0.00 75 1016.8
20260507030119 44 228 0.0 0.0 0.00 0.00 0.00 73 1016.5
20260507025616 45 228 0.0 0.0 0.00 0.00 0.00 70 1016.7
20260507025113 45 228 0.0 0.0 0.00 0.00 0.00 69 1016.6
20260507024611 45 228 0.0 0.0 0.00 0.00 0.00 71 1016.5
20260507024108 45 228 0.0 0.0 0.00 0.00 0.00 70 1016.6
20260507023603 45 228 0.0 0.0 0.00 0.00 0.00 69 1016.6
20260507023101 45 228 0.0 0.0 0.00 0.00 0.00 69 1016.5
20260507022557 45 226 0.0 0.0 0.00 0.00 0.00 66 1016.6
20260507022053 45 225 0.0 0.0 0.00 0.00 0.00 68 1016.3
20260507021549 46 226 0.0 0.0 0.00 0.00 0.00 68 1016.5
20260507021045 46 226 0.0 0.0 0.00 0.00 0.00 68 1016.2
20260507020544 46 226 0.0 0.0 0.00 0.00 0.00 65 1016.5
20260507020039 47 225 0.0 0.0 0.00 0.00 0.00 63 1016.3
20260507015538 47 225 0.0 0.0 0.00 0.00 0.00 60 1016.5
20260507015035 47 236 0.0 0.0 0.00 0.00 0.00 60 1016.2
20260507014532 47 237 0.0 0.0 0.00 0.00 0.00 56 1016.1
20260507014027 48 237 0.0 0.0 0.00 0.00 0.00 56 1016.3
20260507013524 48 237 0.0 0.0 0.00 0.00 0.00 56 1016.0
20260507013021 48 237 0.0 0.0 0.00 0.00 0.00 56 1016.2
20260507012519 49 237 0.0 0.0 0.00 0.00 0.00 61 1015.9
20260507012015 49 233 0.0 0.0 0.00 0.00 0.00 52 1016.1
20260507011513 50 233 0.0 0.0 0.00 0.00 0.00 51 1016.0
20260507011008 50 233 0.0 0.0 0.00 0.00 0.00 51 1015.9
20260507010503 51 237 0.0 0.0 0.00 0.00 0.00 50 1016.1
20260507010000 51 242 0.0 0.0 0.00 0.00 0.00 48 1015.9
20260507005457 52 280 0.0 1.0 0.00 0.00 0.00 47 1015.8
20260507004953 52 224 0.0 0.0 0.00 0.00 0.00 47 1015.8
20260507004450 53 253 0.0 0.0 0.00 0.00 0.00 46 1015.9
20260507003948 53 286 0.0 1.0 0.00 0.00 0.00 44 1015.7
20260507003443 53 271 1.0 2.0 0.00 0.00 0.00 45 1015.9
20260507002938 54 272 0.0 0.0 0.00 0.00 0.00 45 1015.7
20260507002435 54 26 0.0 1.0 0.00 0.00 0.00 44 1015.9
20260507001932 55 302 0.0 1.0 0.00 0.00 0.00 42 1015.9
20260507001428 55 34 1.0 2.0 0.00 0.00 0.00 41 1015.8
20260507000926 55 310 4.0 5.0 0.00 0.00 0.00 40 1015.9
20260507000421 56 227 1.0 1.0 0.00 0.00 0.00 40 1015.8
20260506235917 56 234 1.0 1.0 0.00 0.00 0.00 40 1015.9
20260506235415 56 295 1.0 1.0 0.00 0.00 0.00 43 1015.6
20260506234910 56 306 3.0 6.0 0.00 0.00 0.00 41 1016.0
20260506234408 56 278 0.0 1.0 0.00 0.00 0.00 41 1015.9
20260506233906 57 36 2.0 5.0 0.00 0.00 0.00 39 1016.1
20260506233401 57 330 5.0 6.0 0.00 0.00 0.00 39 1016.1
20260506232858 57 343 5.0 7.0 0.00 0.00 0.00 39 1016.0
20260506232354 58 288 2.0 2.0 0.00 0.00 0.00 38 1016.0
20260506231850 57 265 2.0 3.0 0.00 0.00 0.00 40 1016.0
20260506231348 57 236 3.0 3.0 0.00 0.00 0.00 40 1015.8
20260506230846 57 336 2.0 2.0 0.00 0.00 0.00 42 1015.7
20260506230342 57 13 3.0 5.0 0.00 0.00 0.00 39 1016.2
20260506225838 56 309 2.0 2.0 0.00 0.00 0.00 41 1016.0
20260506225336 57 208 4.0 6.0 0.00 0.00 0.00 40 1015.9
20260506224833 57 359 3.0 6.0 0.00 0.00 0.00 39 1016.0
20260506224330 56 261 4.0 7.0 0.00 0.00 0.00 39 1016.1
20260506223826 56 269 4.0 5.0 0.00 0.00 0.00 42 1016.1
20260506223321 56 342 2.0 2.0 0.00 0.00 0.00 40 1016.0
20260506222819 58 304 5.0 7.0 0.00 0.00 0.00 38 1016.2
20260506222314 57 328 3.0 3.0 0.00 0.00 0.00 40 1015.9
20260506221813 56 39 3.0 3.0 0.00 0.00 0.00 43 1016.2
20260506221310 57 283 3.0 5.0 0.00 0.00 0.00 39 1016.3
20260506220807 59 302 8.0 10.0 0.00 0.00 0.00 38 1016.1
20260506220302 58 282 4.0 5.0 0.00 0.00 0.00 40 1015.8
20260506215759 58 304 3.0 3.0 0.00 0.00 0.00 38 1015.8
20260506215255 58 260 3.0 5.0 0.00 0.00 0.00 39 1016.0
20260506214750 57 271 4.0 7.0 0.00 0.00 0.00 41 1015.8
20260506214248 57 280 3.0 3.0 0.00 0.00 0.00 40 1015.9
20260506213746 58 4 1.0 2.0 0.00 0.00 0.00 39 1016.0
20260506213243 58 311 2.0 3.0 0.00 0.00 0.00 39 1016.2
20260506212740 58 267 4.0 5.0 0.00 0.00 0.00 39 1015.9
20260506212236 58 281 2.0 2.0 0.00 0.00 0.00 39 1015.8
20260506211731 58 268 2.0 3.0 0.00 0.00 0.00 38 1016.2
20260506211228 57 309 5.0 7.0 0.00 0.00 0.00 40 1015.9
20260506210725 59 278 4.0 5.0 0.00 0.00 0.00 39 1016.1
20260506210222 57 232 4.0 6.0 0.00 0.00 0.00 40 1016.0
20260506205719 59 267 7.0 7.0 0.00 0.00 0.00 38 1016.3
20260506205214 59 260 5.0 7.0 0.00 0.00 0.00 39 1016.1
20260506204712 60 228 2.0 2.0 0.00 0.00 0.00 38 1016.3
20260506204209 60 311 3.0 3.0 0.00 0.00 0.00 42 1016.2
20260506203707 58 218 1.0 1.0 0.00 0.00 0.00 39 1016.5
20260506203203 59 267 1.0 2.0 0.00 0.00 0.00 41 1016.5
20260506202702 59 242 1.0 2.0 0.00 0.00 0.00 38 1016.3
20260506202157 58 273 0.0 0.0 0.00 0.00 0.00 42 1016.5
20260506201654 57 265 2.0 2.0 0.00 0.00 0.00 42 1016.5
20260506201150 57 267 9.0 11.0 0.00 0.00 0.00 38 1016.7
20260506200648 59 211 5.0 8.0 0.00 0.00 0.00 38 1016.6
20260506200144 57 278 3.0 5.0 0.00 0.00 0.00 38 1016.8
20260506195641 56 279 6.0 11.0 0.00 0.00 0.00 41 1016.7
20260506195137 56 300 2.0 3.0 0.00 0.00 0.00 40 1016.8
20260506194635 56 296 2.0 3.0 0.00 0.00 0.00 41 1016.8
20260506194131 58 280 3.0 5.0 0.00 0.00 0.00 40 1016.7
20260506193629 58 286 6.0 8.0 0.00 0.00 0.00 38 1016.7
20260506193126 57 270 3.0 5.0 0.00 0.00 0.00 42 1016.9
20260506192622 57 291 6.0 8.0 0.00 0.00 0.00 39 1016.8
20260506192118 58 226 0.0 1.0 0.00 0.00 0.00 40 1016.9
20260506191615 58 348 3.0 6.0 0.00 0.00 0.00 39 1017.0
20260506191111 57 334 3.0 3.0 0.00 0.00 0.00 44 1016.7
20260506190609 57 2 4.0 6.0 0.00 0.00 0.00 41 1016.9
20260506190105 56 50 1.0 2.0 0.00 0.00 0.00 42 1016.9
20260506185603 57 242 1.0 2.0 0.00 0.00 0.00 43 1016.7
20260506185059 56 283 4.0 6.0 0.00 0.00 0.00 42 1016.8
20260506184556 57 311 2.0 3.0 0.00 0.00 0.00 40 1016.7
20260506184054 57 338 4.0 6.0 0.00 0.00 0.00 40 1016.9
20260506183549 57 282 2.0 2.0 0.00 0.00 0.00 40 1016.7
20260506183046 56 258 2.0 2.0 0.00 0.00 0.00 40 1016.8
20260506182544 57 229 2.0 2.0 0.00 0.00 0.00 39 1016.9
20260506182041 58 251 3.0 3.0 0.00 0.00 0.00 39 1016.8
20260506181539 57 339 4.0 6.0 0.00 0.00 0.00 43 1016.9
20260506181035 56 216 2.0 2.0 0.00 0.00 0.00 40 1016.8
20260506180532 57 254 3.0 5.0 0.00 0.00 0.00 39 1017.0
20260506180028 57 264 8.0 11.0 0.00 0.00 0.00 40 1017.1
20260506175525 59 294 4.0 5.0 0.00 0.00 0.00 41 1017.1
20260506175021 57 292 6.0 8.0 0.00 0.00 0.00 39 1017.1
20260506174520 56 299 3.0 3.0 0.00 0.00 0.00 40 1017.0
20260506174016 56 252 7.0 9.0 0.00 0.00 0.00 39 1017.0
20260506173514 55 233 3.0 5.0 0.00 0.00 0.00 43 1016.9
20260506173010 56 302 6.0 7.0 0.00 0.00 0.00 41 1017.3
20260506172508 57 251 5.0 6.0 0.00 0.00 0.00 38 1017.0
20260506172004 57 318 5.0 6.0 0.00 0.00 0.00 38 1017.2
20260506171501 57 246 5.0 7.0 0.00 0.00 0.00 39 1016.9
20260506170959 57 310 1.0 2.0 0.00 0.00 0.00 42 1017.2
20260506170455 57 267 4.0 9.0 0.00 0.00 0.00 40 1017.3
20260506165948 56 265 2.0 2.0 0.00 0.00 0.00 41 1017.3
20260506165447 56 14 3.0 6.0 0.00 0.00 0.00 43 1017.1
20260506164942 56 263 1.0 1.0 0.00 0.00 0.00 39 1017.1
20260506164439 55 245 2.0 2.0 0.00 0.00 0.00 42 1017.2
20260506163937 55 25 5.0 7.0 0.00 0.00 0.00 42 1017.4
20260506163431 55 340 4.0 5.0 0.00 0.00 0.00 40 1017.3
20260506162926 54 313 3.0 5.0 0.00 0.00 0.00 44 1017.1
20260506162424 54 0 5.0 9.0 0.00 0.00 0.00 45 1017.2
20260506161921 53 245 1.0 2.0 0.00 0.00 0.00 46 1017.1
20260506161419 54 255 1.0 2.0 0.00 0.00 0.00 46 1017.0
20260506160911 55 268 1.0 2.0 0.00 0.00 0.00 46 1017.1
20260506160408 54 337 3.0 5.0 0.00 0.00 0.00 47 1017.0
20260506155906 53 343 3.0 3.0 0.00 0.00 0.00 48 1017.0
20260506155403 53 96 1.0 1.0 0.00 0.00 0.00 48 1017.0
20260506153525 53 32 5.0 8.0 0.00 0.00 0.00 46 1016.8
20260506153022 52 7 2.0 2.0 0.00 0.00 0.00 49 1016.8
20260506152519 53 201 2.0 3.0 0.00 0.00 0.00 50 1016.7
20260506152018 52 243 1.0 1.0 0.00 0.00 0.00 50 1017.0
20260506151515 51 341 4.0 5.0 0.00 0.00 0.00 52 1016.8
20260506151012 51 7 5.0 6.0 0.00 0.00 0.00 52 1016.8
20260506150508 50 17 8.0 9.0 0.00 0.00 0.00 52 1016.8
20260506150005 50 35 3.0 5.0 0.00 0.00 0.00 55 1016.8
20260506145502 50 46 2.0 2.0 0.00 0.00 0.00 54 1016.7
20260506144959 49 57 1.0 2.0 0.00 0.00 0.00 55 1016.7
20260506144456 49 44 7.0 9.0 0.00 0.00 0.00 55 1016.3
20260506143954 50 175 1.0 1.0 0.00 0.00 0.00 55 1016.3
20260506143451 49 20 4.0 5.0 0.00 0.00 0.00 55 1016.6
20260506142949 49 335 4.0 6.0 0.00 0.00 0.00 56 1016.6
20260506142446 49 36 4.0 7.0 0.00 0.00 0.00 58 1016.2
20260506141944 48 323 6.0 7.0 0.00 0.00 0.00 59 1016.2
20260506141442 49 345 3.0 5.0 0.00 0.00 0.00 58 1016.3
20260506140941 48 9 3.0 3.0 0.00 0.00 0.00 61 1016.3
20260506140437 48 43 2.0 3.0 0.00 0.00 0.00 59 1016.2
20260506135934 48 68 3.0 3.0 0.00 0.00 0.00 60 1015.9
20260506135431 47 14 4.0 6.0 0.00 0.00 0.00 62 1015.9
20260506134927 47 54 4.0 5.0 0.00 0.00 0.00 63 1015.8
20260506134423 47 0 5.0 8.0 0.00 0.00 0.00 63 1015.7
20260506133920 46 309 4.0 6.0 0.00 0.00 0.00 65 1015.8
20260506133417 46 31 1.0 2.0 0.00 0.00 0.00 67 1015.8
20260506132914 46 267 1.0 1.0 0.00 0.00 0.00 68 1015.7